Jerez De La Frontera, Spain

2:40 PM CET on February 08, 2016 (GMT +0100)
Jerez

Weather History for LEJR - March, 2013

Change the Weather History Date:

Saturday, March 2, 2013

  Actual Average Record
Temperature  
Mean Temperature 52 °F -  
Max Temperature 64 °F 67 °F - ()
Min Temperature 39 °F 46 °F - ()
Degree Days  
Heating Degree Days 14    
Growing Degree Days 2 (Base 50)    
Moisture  
Dew Point 42 °F    
Average Humidity 70    
Maximum Humidity 100    
Minimum Humidity 40    
Precipitation  
Precipitation 0.00 in 0.07 in - ()
Sea Level Pressure  
Sea Level Pressure 29.90 in    
Wind  
Wind Speed 3 mph ()    
Max Wind Speed 17 mph    
Max Gust Speed 29 mph    
Visibility 7.3 miles    
Events      
T = Trace of Precipitation, MM = Missing Value Source: Averaged Metar Reports

Daily Weather History Graph

Daily Weather History Graph

Search for Another Location

Airport or City:

Trip Planner

Search our weather history database for the weather conditions in past years. The results will help you decide how hot, cold, wet, or windy it might be!

Date:

Astronomy

Mar. 02, 2013 Rise Set
Actual Time 7:53 AM CET 7:19 PM CET
Civil Twilight 7:27 AM CET 7:45 PM CET
Nautical Twilight 6:57 AM CET 8:15 PM CET
Astronomical Twilight 6:27 AM CET 8:45 PM CET
Moon No Moon Rise 10:20 AM CET (3/2)
Length of Visible Light 12h 17m
Length of Day
11h 26m
Waning Gibbous, 76% of the Moon is Illuminated
Mar 2
Waning Gibbous
Mar 4
Last Quarter
Mar 11
New
Mar 19
First Quarter
Mar 27
Full

Hourly Weather History & Observations

Time (CET) Temp. Windchill Dew Point Humidity Pressure Visibility Wind Dir Wind Speed Gust Speed Precip Events Conditions
1:00 AM 41 °F - 40 °F 92% 30.02 in 12 mi ENE 2.3 mph - -  
5:00 AM 39.2 °F - 37.4 °F 93% 29.92 in - Calm Calm - N/A   Clear
5:30 AM 39.2 °F - 37.4 °F 93% 29.92 in - Variable 1.2 mph - N/A   Clear
6:00 AM 41.0 °F - 37.4 °F 87% 29.92 in 6.2 mi Calm Calm - N/A   Partly Cloudy
6:30 AM 41.0 °F 39.0 °F 37.4 °F 87% 29.92 in - WSW 3.5 mph - N/A   Clear
7:00 AM 41 °F - 39 °F 89% 29.95 in 16 mi WNW 2.3 mph - -   Mostly Cloudy
7:30 AM 39.2 °F - 39.2 °F 100% 29.92 in 6.2 mi Variable 2.3 mph - N/A   Scattered Clouds
8:00 AM 41.0 °F - 39.2 °F 93% 29.92 in 6.2 mi Variable 1.2 mph - N/A   Partly Cloudy
8:30 AM 41.0 °F - 39.2 °F 93% 29.92 in 6.2 mi Variable 1.2 mph - N/A   Partly Cloudy
9:00 AM 41.0 °F - 39.2 °F 93% 29.95 in 6.2 mi Calm Calm - N/A   Partly Cloudy
9:30 AM 42.8 °F - 41.0 °F 93% 29.95 in 6.2 mi Calm Calm - N/A   Partly Cloudy
10:00 AM 44.6 °F - 41.0 °F 87% 29.95 in 6.2 mi Calm Calm - N/A   Partly Cloudy
10:30 AM 44.6 °F - 42.8 °F 93% 29.95 in 6.2 mi Calm Calm - N/A   Partly Cloudy
11:00 AM 46.4 °F - 44.6 °F 93% 29.95 in 6.2 mi Variable 1.2 mph - N/A   Partly Cloudy
11:30 AM 51.8 °F - 46.4 °F 82% 29.92 in 6.2 mi Variable 1.2 mph - N/A   Partly Cloudy
12:00 PM 55.4 °F - 46.4 °F 72% 29.92 in 6.2 mi Variable 1.2 mph - N/A   Partly Cloudy
12:30 PM 59.0 °F - 44.6 °F 59% 29.92 in 6.2 mi ENE 5.8 mph - N/A   Partly Cloudy
1:00 PM 62 °F - 44 °F 40% 29.93 in 19 mi East 8.1 mph - -   Scattered Clouds
1:00 PM 60.8 °F - 44.6 °F 55% 29.92 in 6.2 mi East 8.1 mph - N/A   Partly Cloudy
1:30 PM 60.8 °F - 44.6 °F 55% 29.92 in 6.2 mi WSW 4.6 mph - N/A   Partly Cloudy
2:00 PM 60.8 °F - 44.6 °F 55% 29.92 in 6.2 mi West 5.8 mph - N/A   Partly Cloudy
2:30 PM 59.0 °F - 48.2 °F 67% 29.89 in 6.2 mi NW 9.2 mph - N/A   Partly Cloudy
3:00 PM 59.0 °F - 50.0 °F 72% 29.89 in 6.2 mi NW 8.1 mph - N/A   Partly Cloudy
3:30 PM 62.6 °F - 44.6 °F 52% 29.86 in 6.2 mi Calm Calm - N/A   Partly Cloudy
4:00 PM 60.8 °F - 42.8 °F 52% 29.86 in 6.2 mi ESE 16.1 mph - N/A   Partly Cloudy
4:30 PM 59.0 °F - 42.8 °F 55% 29.83 in 6.2 mi ESE 17.3 mph 28.8 mph N/A   Partly Cloudy
5:00 PM 59.0 °F - 44.6 °F 59% 29.83 in 6.2 mi East 13.8 mph - N/A   Partly Cloudy
5:30 PM 59.0 °F - 42.8 °F 55% 29.86 in 6.2 mi East 12.7 mph - N/A   Partly Cloudy
6:00 PM 60.8 °F - 41.0 °F 48% 29.86 in 6.2 mi East 11.5 mph - N/A   Partly Cloudy
6:30 PM 59.0 °F - 42.8 °F 55% 29.86 in 6.2 mi East 10.4 mph - N/A   Partly Cloudy
7:00 PM 58 °F - 42 °F 43% 29.87 in 19 mi ESE 8.1 mph - -   Scattered Clouds
7:00 PM 57.2 °F - 42.8 °F 59% 29.86 in 6.2 mi ESE 8.1 mph - N/A   Partly Cloudy
7:30 PM 57.2 °F - 39.2 °F 51% 29.86 in 6.2 mi Calm Calm - N/A   Partly Cloudy
8:00 PM 55.4 °F - 42.8 °F 63% 29.86 in 6.2 mi Variable 1.2 mph - N/A   Partly Cloudy
8:30 PM 57.2 °F - 39.2 °F 51% 29.86 in 6.2 mi ESE 4.6 mph - N/A   Partly Cloudy
9:00 PM 55.4 °F - 39.2 °F 54% 29.86 in 6.2 mi East 3.5 mph - N/A   Partly Cloudy
9:30 PM 55.4 °F - 41.0 °F 58% 29.89 in 6.2 mi Variable 2.3 mph - N/A   Partly Cloudy
10:00 PM 55.4 °F - 41.0 °F 58% 29.89 in 6.2 mi ESE 5.8 mph - N/A   Partly Cloudy
10:30 PM 53.6 °F - 42.8 °F 67% 29.89 in 6.2 mi Variable 2.3 mph - N/A   Partly Cloudy
11:00 PM 53.6 °F - 42.8 °F 67% 29.89 in 6.2 mi ENE 5.8 mph - N/A   Partly Cloudy